Aeroporto :
LOGIN :

Iscrizione | Disclaimer

   EN    FR    IT 

 










Sommario :    VFR   VFR Marginale   IFR   IFR Intensivo   IFR Molto Intensivo
Visibilità : 
Base nubi : 
>= 8 km
>= 3000ft
5 / 8 km
1000 / 3000 ft
1500m / 5 km
500 / 1000 ft
800 / 1500m
200 / 500 ft
< 800m
< 200 ft
Simboli :   Temporali  Nebbia  Neve Forte  Precipitazioni Forti  Vento > 20 kt
SIGMETs :   Varie  Temporali  Ghiacco  Turbolenza  Onda orograficha  Ceneri Vulcaniche







- Altitudine del aeroporto : 1036 ft
- Codice IATA : ERF


EDDE - Erfurt

ULTIMO METAR :
  • 270720Z 23011KT 200V270 CAVOK 17/11 Q1009 NOSIG

METARs OBSOLETI :
  • 270650Z 22010KT CAVOK 16/11 Q1009 NOSIG
  • 270620Z 24010KT CAVOK 16/10 Q1009 NOSIG
  • 270550Z 24010KT CAVOK 16/11 Q1009 NOSIG
  • 270520Z 20007KT CAVOK 16/11 Q1009 NOSIG
  • 270450Z 19007KT CAVOK 15/10 Q1009 NOSIG

TAF TAF EDDE
Valido dal 27 a 06 ore il 28 a 06 ore UTC


270500Z 2706/2806 24010KT 9999 SCT040
BECMG 2713/2715 27005KT
Nessun NOTAM noto per questo aeroporto.



MetMap, La meteo Aeronautica in un colpo d'occhio ! - Copyright ORBIFLY Dicembre 2007 - Disclaimer

ORBIFLY MET'MAP TEAM :

Programmazione e sviluppo : Alexandra Zaïnal
Concezione e sviluppo : Baudouin d'Aumeries
Co-Programmazione e sviluppo : Marc-Olivier Méhu
Supporto tecnico e logistico : Manuel Goepfert
Aiuto per la traduzione : Arnaldo La Scala

Contatto : metmap@orbifly.com




FONTI E CREDITI :

   NOAA